Location: Unspecified
(0.0000°N, 0.0000°E)
Time: 23:39:22
(UTC+00:00)

NOSS 3-4 (A) - Pass Details

Date: 13 August 2024
Orbit: 801 x 1411 km, 63.4° (Epoch: 09 September)

Event Time Altitude Azimuth Distance (km) Brightness Sun altitude
Rises 18:38:48 0° 199° (SSW) 3,543 6.5 -8.2°
Reaches altitude 10° 18:41:26 10° 196° (SSW) 2,530 5.7 -8.9°
Maximum altitude 18:47:09 68° 113° (ESE) 880 3.1 -10.3°
Drops below altitude 10° 18:52:28 10° 31° (NNE) 2,365 5.4 -11.6°
Sets 18:54:51 0° 28° (NNE) 3,294 6.1 -12.1°
